STARLINK-34837, 65423

Orbit data source: Space-Track

STARLINK-34837, 65423 is a payload satellite owned by SpaceX/Seattle (US) in LEO that was launched on Sun, 31 Aug 2025 UTC via an FALCON 9 launch vehicle from the Air Force Eastern Test Range (AFETR). Payload-class satellites include a variety of spacecraft equipped with specific instruments for various scientific and technological missions. These include communications satellites like Starlink; space stations such as the ISS; scientific satellites like the Hubble; Earth observation satellites from companies like Planet Labs, Umbra, and HawkEye 360; GPS; miniature CubeSats for education and research; and military/defense satellites.

Loading next visibility...
Identifier
65423, 2025-192V
Orbit
LEO
Country
Flag of USUS
Related business
Manufacturer
SpaceX/Seattle
Mission
Operational Commercial Communications
Bus & Motor
STARLINK V2MO, Unknown motor
Mass
575 kg wet, ~530 kg dry
Launch date (UTC)
2025-08-31 (10 months ago)
Launch vehicle
FALCON 9
Launch site
Air Force Eastern Test Range (AFETR)
Object type
Payload
Rocket body
Debris
Shape & HBR
Box + 2 Pan, 17.7 m
Radar Cross Section
36.964 m², Large (>1 m²)

Expand to show TLE details & history
Last TLE update: 2 days ago

TLE from 2 days ago
0 STARLINK-34837
1 65423U 25192V   26170.27568130  .00024743  00000-0  80606-3 0  9990
2 65423  53.1582 120.0583 0001104  92.3642 267.7485 15.31716126 44940
Epoch: 2026-06-19T06:36Z
TLE epoch observation values (Epoch: 2026-06-19T06:36:58.864Z)
Latitude
-0.00008°
Longitude
113.30599°
Altitude
471.622 km
Speed
7.631 km/s
True Right ascension
08h 00m 13s
True Declination
0° 00' 00"
Sunlit
Object was in daylight at epoch
Visualization orbit readout
Latitude
Unknown
Longitude
Unknown
Altitude
Unknown
Speed
Unknown
Apparent Right ascension
Unknown
Apparent Declination
Unknown
Sunlit
N/A
Visualization observer readout
Local Sidereal Time
07:16:31
Azimuth
Unknown
Elevation
Unknown
Doppler factor
Unknown
Orbital elements
Apogee altitude
471.705 km
Perigee altitude
470.193 km
Semi-major axis
6,849.086 km
Eccentricity
0.00011
Inclination
53.1582°
RAAN
120.0583°
Arg. of periapsis
92.3642°
True anomaly
267.73586°
Mean anomaly
267.7485°
Eccentric anomaly
267.74218°
Mean motion
3.82908 °/min
Orbital period
94.02 mins
BSTAR
0.00080606
Loading maneuver chart data...
Computing Atmospheric mass density...
Loading historical data...
Loading historical data...
Loading historical data...
Loading historical data...
Loading historical data...
Loading historical data...
Loading historical data...

Documentation

Showing up to 5 results
|